Tracking 18856 objects as of 12-Dec-2017
HD Live streaming from Space Station
objects crossing your sky now

GREB

Track GREB now!
10-day predictions
GREB is classified as:


NORAD ID: 731
Int'l Code: 1964-001E
Perigee: 907.3 km
Apogee: 923.7 km
Inclination: 69.9 °
Period: 103.2 minutes
Semi major axis: 7286 km
RCS: 0.526 m2 (medium)
Launch date: January 11, 1964
Source: United States (US)
Launch site: AIR FORCE WESTERN TEST RANGE (AFWTR)
aabbcc
Your satellite tracking list
Your tracking list is empty




NASA's NSSDC Master Catalog

Two Line Element Set (TLE):
1   731U 64001E   17345.62545920 -.00000011 +00000-0 +31053-4 0  9994
2   731 069.9063 104.2711 0011247 055.4195 033.6705 13.95807042743621
Source of the keplerian elements: AFSPC